Weather Roundup
Issued by NWS Chicago, IL

Home | Current Version | Previous Version | Text Only | Print | Product List | Glossary On
Versions: 1 2 3 4 5 6 7 8 9 10 11 12 13 14 15 16 17 18 19 20 21 22 23 24 25 26 27 28 29 30 31 32 33 34 35 36 37 38 39 40 41 42 43 44 45 46 47 48 49 50
000
NZUS59 KLOT 250702
HRRLOT

CHICAGO AREA WEATHER ROUNDUP
NATIONAL WEATHER SERVICE CHICAGO/ROMEOVILLE IL
200 AM CDT SAT MAR 25 2017

NOTE: "FAIR" INDICATES FEW OR NO CLOUDS BELOW 12,000 FEET WITH NO
SIGNIFICANT WEATHER AND/OR OBSTRUCTIONS TO VISIBILITY.

* THESE STATIONS ARE NOT UNDER NWS QUALITY CONTROL. THEY ALSO MAY NOT
  REPORT WEATHER SUCH AS PRECIPITATION OR FOG.

ILZ005-006-012>014-019>023-250800-
NORTHEAST ILLINOIS

CITY           SKY/WX    TMP DP  RH WIND       PRES   REMARKS
OHARE          CLOUDY    42  36  79 NE12      30.07R
MIDWAY         CLOUDY    40  37  89 N17G24    30.08R
AURORA         CLOUDY    43  36  76 NE14      30.06R
LANSING*       CLOUDY    39  38  99 N8        30.07S
JOLIET*        CLOUDY    44  40  88 NE10      30.05R
WAUKEGAN       LGT RAIN  37  36  96 N15G23    30.08S FOG
DUPAGE AIRPORT CLOUDY    41  38  89 NE12      30.06R
WHEELING       CLOUDY    39  38  96 N10       30.08S
MORRIS*        LGT RAIN  43  40  89 NE7       30.04R
NORTHERLY ISL    N/A     38  36  92 N16         N/A
$$

WIZ051-052-058>065-066-070>072-250800-
SOUTHEAST WISCONSIN

CITY           SKY/WX    TMP DP  RH WIND       PRES   REMARKS
MILWAUKEE      LGT RAIN  38  35  89 N16G24    30.11R
KENOSHA*       LGT RAIN  37  35  92 NE14      30.09S FOG
RACINE*        LGT RAIN  37  34  89 N17G24    30.12S
WEST BEND      LGT RAIN  36  34  93 NE16G22   30.11F
$$

INZ001>003-010>013-019-020-250800-
NORTHWEST INDIANA

CITY           SKY/WX    TMP DP  RH WIND       PRES   REMARKS
GARY*          CLOUDY    40  38  92 N13       30.07F
MICHIGAN CITY* NOT AVBL
RENSSELAER*    NOT AVBL
VALPARAISO     CLOUDY    41  39  93 N5        30.04F
$$

LMZ740>746-250800-
SOUTHERN LAKE MICHIGAN

STATION/POSITION TIME  SKY/WX   TEMP WIND        PRES    VSBY
                                AIR  DIR/SP/G
                 (UTC)          (F)  (DEG/KT/KT) (MB)    (MI)
HARRISON CRIB    0640                350/ 19/ 21   N/A
BURNHAM HARBOR   0700                340/ 14/ 17   N/A
CALUMET HARBOR   0630                340/ 12/ 16 1017.5S
BURNS HARBOR     0640            39  310/  3/  4 1018.3F
MICHIGAN CITY    0640            38  280/  3/  3   N/A
$$

ABBREVIATIONS USED IN REMARKS
   TC - TEMPERATURE IN CELSIUS
  WCI - WIND CHILL INDEX
   HX - HEAT INDEX
  VSB - VISIBILITY
$$



USA.gov is the U.S. government's official web portal to all federal, state and local government web resources and services.